This is the latest recevied weather packets stored in our database for station/object KC5DAQ-26. If no packets are shown the sender has not sent any weather packets the latest 10 day(s).
| Time | Temp. | Humidity | Pressure | Rain* | Wind** | Luminosity | Snow |
|---|---|---|---|---|---|---|---|
| 1787784604 | 35.56° C | 57% | 1015.5 hPa | 0 mm | - | 141 W/m² | - |
| 1787784543 | 35.56° C | 57% | 1015.6 hPa | 0 mm | - | 135 W/m² | - |
| 1787784484 | 35.56° C | 56% | 1015.6 hPa | 0 mm | - | 137 W/m² | - |
| 1787784423 | 35.56° C | 55% | 1015.6 hPa | 0 mm | - | 139 W/m² | - |
| 1787784364 | 35.56° C | 56% | 1015.6 hPa | 0 mm | - | 142 W/m² | - |
| 1787784303 | 35.56° C | 58% | 1015.6 hPa | 0 mm | - | 148 W/m² | - |
| 1787784242 | 35.56° C | 58% | 1015.6 hPa | 0 mm | - | 144 W/m² | - |
| 1787784183 | 35.56° C | 55% | 1015.7 hPa | 0 mm | - | 141 W/m² | - |
| 1787784124 | 35.56° C | 57% | 1015.7 hPa | 0 mm | - | 139 W/m² | - |
| 1787784062 | 35.56° C | 56% | 1015.7 hPa | 0 mm | - | 139 W/m² | - |
| 1787784004 | 36.11° C | 56% | 1015.7 hPa | 0 mm | - | 139 W/m² | - |
| 1787783943 | 36.11° C | 55% | 1015.8 hPa | 0 mm | - | 134 W/m² | - |
| 1787783883 | 36.11° C | 55% | 1015.7 hPa | 0 mm | - | 132 W/m² | - |
| 1787783822 | 36.67° C | 53% | 1015.7 hPa | 0 mm | - | 128 W/m² | - |
| 1787783764 | 36.67° C | 50% | 1015.7 hPa | 0 mm | - | 128 W/m² | - |
| 1787783703 | 36.67° C | 49% | 1015.7 hPa | 0 mm | - | 132 W/m² | - |
| 1787783643 | 36.67° C | 50% | 1015.7 hPa | 0 mm | - | 142 W/m² | - |
| 1787783584 | 36.67° C | 49% | 1015.7 hPa | 0 mm | - | 162 W/m² | - |
| 1787783522 | 36.67° C | 51% | 1015.7 hPa | 0 mm | - | 237 W/m² | - |
| 1787783463 | 36.11° C | 52% | 1015.8 hPa | 0 mm | - | 362 W/m² | - |
| 1787783404 | 36.11° C | 53% | 1015.8 hPa | 0 mm | - | 392 W/m² | - |
| 1787783344 | 36.11° C | 58% | 1015.8 hPa | 0 mm | - | 380 W/m² | - |
| 1787783283 | 36.11° C | 56% | 1015.8 hPa | 0 mm | - | 324 W/m² | - |
| 1787783223 | 36.11° C | 55% | 1015.8 hPa | 0 mm | - | 394 W/m² | - |
| 1787783163 | 36.11° C | 56% | 1015.8 hPa | 0 mm | - | 239 W/m² | - |
* Rain latest hour (hover to see other rain measurements)
** Current wind speed in m/s (hover to see current wind gust speed)